{"data":{"norad_id":46061,"intl_designator":"2020-055AL","name":"STARLINK-1573","alt_names":[],"object_type":"PAYLOAD","status":"ACTIVE","operator":null,"country":"US","launch_date":"2020-08-07","launch_site_code":"AFETR","launch_vehicle":null,"mission":null,"orbit_class":"UNKNOWN","rcs_meters":null,"size_class":null,"mass_kg":null,"dimensions":null,"purposes":["comms"],"wikipedia_slug":null,"has_3d_model":false,"image_url":null,"decayed_at":null,"tle_current":{"epoch":"2026-09-19T14:09:34.267680Z","epoch_age_seconds":96962,"freshness":"FRESH","line1":"1 46061U 20055AL  26262.58997995  .00000350  00000+0  23073-4 0  9994","line2":"2 46061  53.1607 291.5193 0001925  58.3765 301.7424 15.31701306338789","mean_motion":15.31701306,"eccentricity":0.0001925,"inclination_deg":53.1607,"raan_deg":291.5193,"arg_perigee_deg":58.3765,"mean_anomaly_deg":301.7424,"bstar":2.3073e-5,"rev_number":33878,"period_min":94.013107801058,"perigee_km":469.41769403822,"apogee_km":472.05451018253,"semimajor_km":6848.8731021104,"source":"CELESTRAK","updated_at":"2026-09-20T09:00:38.463635Z"}}}